Previsão horária em Ábidos

Hoje, 18 Maio, Terça-feira

Tempo Temperatura Precipitação Vento Pressão Humidade
00:00 +25°C° 0 mm 2 m/s 758 mmHg 98%
01:00 +25°C° 0 mm 2 m/s 758 mmHg 97%
02:00 +25°C° 0 mm 2 m/s 757 mmHg 97%
03:00 +25°C° 0.7 mm 2 m/s 758 mmHg 97%
04:00 +25°C° 0.7 mm 2 m/s 758 mmHg 97%
05:00 +25°C° 0.7 mm 2 m/s 758 mmHg 97%
06:00 +25°C° 1.9 mm 2 m/s 759 mmHg 97%
07:00 +25°C° 1.9 mm 2 m/s 759 mmHg 97%
08:00 +25°C° 1.9 mm 2 m/s 760 mmHg 97%
09:00 +26°C° 0.5 mm 2 m/s 760 mmHg 94%
10:00 +26°C° 0.5 mm 2 m/s 760 mmHg 92%
11:00 +27°C° 0.5 mm 2 m/s 759 mmHg 89%
12:00 +28°C° 0 mm 2 m/s 759 mmHg 83%
13:00 +29°C° 0 mm 2 m/s 758 mmHg 76%
14:00 +30°C° 0 mm 3 m/s 757 mmHg 69%
15:00 +29°C° 0.1 mm 2 m/s 757 mmHg 74%
16:00 +29°C° 0.1 mm 2 m/s 756 mmHg 78%
17:00 +28°C° 0.1 mm 1 m/s 756 mmHg 82%
18:00 +27°C° 0 mm 1 m/s 757 mmHg 85%
19:00 +27°C° 0 mm 1 m/s 757 mmHg 88%
20:00 +26°C° 0 mm 1 m/s 758 mmHg 91%
21:00 +26°C° 0 mm 1 m/s 758 mmHg 92%
22:00 +25°C° 0 mm 1 m/s 758 mmHg 94%
23:00 +25°C° 0 mm 1 m/s 759 mmHg 95%

Amanhã, 19 Maio, Quarta-feira

Tempo Temperatura Precipitação Vento Pressão Humidade
00:00 +25°C° 0 mm 1 m/s 758 mmHg 95%
01:00 +25°C° 0 mm 1 m/s 758 mmHg 96%
02:00 +24°C° 0 mm 1 m/s 757 mmHg 96%
03:00 +24°C° 0 mm 1 m/s 757 mmHg 96%
04:00 +24°C° 0 mm 1 m/s 758 mmHg 96%
05:00 +24°C° 0 mm 1 m/s 758 mmHg 95%
06:00 +25°C° 0 mm 1 m/s 758 mmHg 89%
07:00 +26°C° 0 mm 1 m/s 759 mmHg 83%
08:00 +28°C° 0 mm 2 m/s 759 mmHg 76%
09:00 +29°C° 0 mm 2 m/s 759 mmHg 70%
10:00 +31°C° 0 mm 2 m/s 758 mmHg 64%
11:00 +32°C° 0 mm 2 m/s 758 mmHg 57%
12:00 +34°C° 0 mm 2 m/s 757 mmHg 56%
13:00 +34°C° 0 mm 2 m/s 756 mmHg 55%
14:00 +34°C° 0 mm 2 m/s 755 mmHg 54%
15:00 +32°C° 0 mm 2 m/s 755 mmHg 61%
16:00 +31°C° 0 mm 1 m/s 755 mmHg 68%
17:00 +30°C° 0 mm 1 m/s 755 mmHg 75%
18:00 +29°C° 0 mm 1 m/s 756 mmHg 77%
19:00 +28°C° 0 mm 1 m/s 756 mmHg 79%
20:00 +27°C° 0 mm 1 m/s 757 mmHg 81%
21:00 +27°C° 0 mm 1 m/s 757 mmHg 83%
22:00 +26°C° 0 mm 1 m/s 758 mmHg 85%
23:00 +26°C° 0 mm 2 m/s 758 mmHg 88%

Depois de amanhã, 20 Maio, Quinta-feira

Tempo Temperatura Precipitação Vento Pressão Humidade
00:00 +26°C° 0 mm 1 m/s 757 mmHg 89%
01:00 +25°C° 0 mm 1 m/s 757 mmHg 91%
02:00 +25°C° 0 mm 1 m/s 756 mmHg 93%
03:00 +25°C° 0 mm 1 m/s 757 mmHg 93%
04:00 +25°C° 0 mm 1 m/s 757 mmHg 93%
05:00 +24°C° 0 mm 1 m/s 757 mmHg 93%
06:00 +26°C° 0 mm 1 m/s 757 mmHg 87%
07:00 +27°C° 0 mm 1 m/s 758 mmHg 81%
08:00 +28°C° 0 mm 1 m/s 758 mmHg 75%
09:00 +30°C° 0 mm 1 m/s 758 mmHg 70%
10:00 +31°C° 0 mm 2 m/s 758 mmHg 64%
11:00 +32°C° 0 mm 2 m/s 758 mmHg 59%
12:00 +32°C° 0.1 mm 2 m/s 757 mmHg 62%
13:00 +32°C° 0.1 mm 2 m/s 756 mmHg 65%
14:00 +32°C° 0.1 mm 1 m/s 755 mmHg 68%
15:00 +31°C° 0.2 mm 1 m/s 755 mmHg 71%
16:00 +30°C° 0.2 mm 1 m/s 755 mmHg 74%
17:00 +30°C° 0.2 mm 1 m/s 755 mmHg 77%
18:00 +29°C° 0.1 mm 1 m/s 756 mmHg 81%
19:00 +28°C° 0.1 mm 1 m/s 757 mmHg 84%
20:00 +27°C° 0.1 mm 1 m/s 757 mmHg 87%
21:00 +26°C° 0.5 mm 1 m/s 757 mmHg 90%
22:00 +26°C° 0.5 mm 1 m/s 758 mmHg 92%
23:00 +26°C° 0.5 mm 1 m/s 758 mmHg 94%

21 Maio, Sexta-feira

Tempo Temperatura Precipitação Vento Pressão Humidade
00:00 +26°C° 0 mm 1 m/s 757 mmHg 94%
01:00 +25°C° 0 mm 1 m/s 757 mmHg 94%
02:00 +25°C° 0 mm 1 m/s 757 mmHg 94%
03:00 +25°C° 0 mm 1 m/s 757 mmHg 94%
04:00 +25°C° 0 mm 1 m/s 757 mmHg 94%
05:00 +25°C° 0 mm 1 m/s 757 mmHg 94%
06:00 +26°C° 0 mm 1 m/s 757 mmHg 89%
07:00 +27°C° 0 mm 1 m/s 758 mmHg 84%
08:00 +28°C° 0 mm 1 m/s 758 mmHg 79%
09:00 +30°C° 0.1 mm 2 m/s 758 mmHg 73%
10:00 +31°C° 0.1 mm 2 m/s 758 mmHg 67%
11:00 +32°C° 0.1 mm 2 m/s 758 mmHg 62%
12:00 +32°C° 0.3 mm 2 m/s 757 mmHg 63%
13:00 +32°C° 0.3 mm 2 m/s 756 mmHg 64%
14:00 +32°C° 0.3 mm 2 m/s 755 mmHg 65%
15:00 +31°C° 0.2 mm 1 m/s 755 mmHg 70%
16:00 +31°C° 0.2 mm 1 m/s 755 mmHg 75%
17:00 +30°C° 0.2 mm 1 m/s 755 mmHg 80%
18:00 +29°C° 0.3 mm 1 m/s 755 mmHg 83%
19:00 +28°C° 0.3 mm 1 m/s 756 mmHg 87%
20:00 +27°C° 0.3 mm 1 m/s 757 mmHg 90%
21:00 +26°C° 0.9 mm 1 m/s 757 mmHg 92%
22:00 +26°C° 0.9 mm 1 m/s 757 mmHg 94%
23:00 +25°C° 0.9 mm 1 m/s 758 mmHg 96%

22 Maio, Sábado

Tempo Temperatura Precipitação Vento Pressão Humidade
00:00 +25°C° 0.2 mm 1 m/s 757 mmHg 96%
01:00 +25°C° 0.2 mm 1 m/s 757 mmHg 96%
02:00 +25°C° 0.2 mm 1 m/s 757 mmHg 96%
03:00 +25°C° 0 mm 1 m/s 757 mmHg 96%
04:00 +25°C° 0 mm 1 m/s 757 mmHg 96%
05:00 +25°C° 0 mm 1 m/s 757 mmHg 96%
06:00 +26°C° 0 mm 1 m/s 758 mmHg 93%
07:00 +27°C° 0 mm 1 m/s 758 mmHg 90%
08:00 +28°C° 0 mm 1 m/s 758 mmHg 87%
09:00 +29°C° 0 mm 1 m/s 758 mmHg 81%
10:00 +30°C° 0 mm 1 m/s 758 mmHg 72%
11:00 +32°C° 0 mm 2 m/s 758 mmHg 64%
12:00 +32°C° 0 mm 2 m/s 757 mmHg 64%
13:00 +32°C° 0 mm 2 m/s 756 mmHg 64%
14:00 +32°C° 0 mm 2 m/s 755 mmHg 64%
15:00 +31°C° 0.1 mm 2 m/s 755 mmHg 69%
16:00 +31°C° 0.1 mm 1 m/s 755 mmHg 74%
17:00 +30°C° 0.1 mm 1 m/s 755 mmHg 79%
18:00 +29°C° 0.2 mm 1 m/s 755 mmHg 82%
19:00 +28°C° 0.2 mm 1 m/s 756 mmHg 86%
20:00 +25°C° 0.2 mm 0 m/s 757 mmHg 90%
21:00 +26°C° 0 mm 1 m/s 757 mmHg 90%
22:00 +26°C° 0 mm 1 m/s 757 mmHg 91%
23:00 +26°C° 0 mm 1 m/s 757 mmHg 92%

23 Maio, Domingo

Tempo Temperatura Precipitação Vento Pressão Humidade
00:00 +26°C° 0 mm 1 m/s 757 mmHg 93%
01:00 +26°C° 0 mm 1 m/s 757 mmHg 93%
02:00 +25°C° 0 mm 1 m/s 756 mmHg 94%
03:00 +25°C° 0 mm 1 m/s 756 mmHg 94%
04:00 +25°C° 0 mm 1 m/s 757 mmHg 94%
05:00 +25°C° 0 mm 1 m/s 757 mmHg 94%
06:00 +26°C° 0 mm 1 m/s 757 mmHg 90%
07:00 +27°C° 0 mm 1 m/s 758 mmHg 85%
08:00 +28°C° 0 mm 1 m/s 758 mmHg 80%
09:00 +29°C° 0.1 mm 1 m/s 758 mmHg 75%
10:00 +30°C° 0.1 mm 2 m/s 758 mmHg 71%
11:00 +32°C° 0.1 mm 2 m/s 758 mmHg 66%
12:00 +32°C° 0.1 mm 2 m/s 757 mmHg 63%
13:00 +33°C° 0.1 mm 1 m/s 756 mmHg 61%
14:00 +33°C° 0.1 mm 1 m/s 755 mmHg 58%
15:00 +32°C° 0 mm 1 m/s 755 mmHg 64%
16:00 +29°C° 0 mm 0 m/s 755 mmHg 69%
17:00 +28°C° 0 mm 0 m/s 755 mmHg 74%
18:00 +29°C° 0 mm 1 m/s 756 mmHg 77%
19:00 +29°C° 0 mm 1 m/s 756 mmHg 79%
20:00 +28°C° 0 mm 1 m/s 757 mmHg 81%
21:00 +27°C° 0.1 mm 1 m/s 757 mmHg 84%
22:00 +27°C° 0.1 mm 1 m/s 758 mmHg 87%
23:00 +26°C° 0.1 mm 1 m/s 758 mmHg 90%
Mostrar mais

Necessitamos do seu Consentimento

A Meteoprog e os seus Fornecedores de Serviços podem armazenar e aceder a dados pessoais como cookies, identificadores do dispositivo ou outras tecnologias semelhantes existentes no seu dispositivo e processar estes dados para personalizar conteúdos e anúncios, assim como funcionalidades nas redes sociais e análise de tráfego.

  • Armazenar e/ou aceder a informações no seu dispositivo

    Os cookies, identificadores do dispositivo ou outras informações podem ser armazenados ou acedidos no seu dispositivo, para os fins acima indicados.

  • Anúncios e conteúdos personalizados, medição de anúncios e conteúdos, dados sobre o público-alvo e desenvolvimento de produtos

    Os anúncios e os conteúdos podem ser personalizados com base num perfil. Podem ser adicionados dados adicionais para uma maior personalização dos anúncios e dos conteúdos. A eficácia dos anúncios e dos conteúdos pode ser medida. Podem ser obtidas informações sobre o público que visualizou os anúncios e os conteúdos. Estes dados podem ser usados para desenvolver ou melhorar sistemas, softwares ou a experiência do utilizador.

Ao clicar em "Eu concordo”, permitirá o uso de cookies, identificadores do dispositivo e web beacons mencionados ou outras tecnologias semelhantes. As configurações do navegador do seu dispositivo podem ser alteradas.

Para certos fins, podem ser invocados interesses legítimos ao invés de consentimento. Pode ler mais informação sobre este assunto na nossa Política de Privacidade e Cookies.